Flag for India Weather past 2 weeks in Faridabad, Haryana, India

Now
68 °F

Clear.


Feels Like: 68 °F
Forecast: 68 / 93 °F
Wind: 3 mph from Southwest

Location: New Delhi Palam Airport

Current Time: Oct 21, 2014 at 8:45:16 AM

Latest Report: Oct 21, 2014 at 8:00 AM


Visibility: 1 mi

Pressure: 30.01 "Hg

Humidity: 73%

Dew point: 59 °F

Location of FaridabadLocation

Historic Weather in Faridabad — Graph

°F

Faridabad temperature yesterday

Maximum temperature yesterday: 90 °F (at 1:30 PM)
Minimum temperature yesterday: 63 °F (at 5:00 AM)
Average temperature yesterday: 74 °F

Past Weeks' High & Low Weather Summary

 TemperatureHumidityPressure
High99 °F (Oct 6, 12:30 PM)94% (Oct 17, 4:30 AM)30.04 "Hg (Oct 17, 4:30 AM)
Low63 °F (Oct 17, 4:30 AM)20% (Oct 12, 4:30 PM)29.74 "Hg (Oct 7, 4:30 PM)
Average80 °F56%29.89 "Hg
* Reported Oct 6 8:30 AM — Oct 21 7:00 AM, Faridabad, Weather by CustomWeather, © 2014

Note: Actual official high and low records may vary slightly from our data, if they occured in-between our weather recording intervals... More about our weather records

Advertising

Faridabad weather history for previous 24 hours

 ConditionsComfort  
Time TempWeatherWind HumidityBarometerVisibility
7:00 AM
Oct 21
66 °FFog.5 mph83%30.01 "Hg1 mi
6:30 AM66 °FFog.3 mph83%29.98 "Hg1 mi
6:00 AM66 °FFog.3 mph83%29.98 "Hg1 mi
5:30 AM66 °FFog.No wind83%29.98 "Hg1 mi
5:00 AM66 °FFog.5 mph83%29.98 "Hg1 mi
4:30 AM66 °FFog.5 mph88%29.95 "Hg1 mi
3:30 AM68 °FFog.No wind83%29.95 "Hg1 mi
3:00 AM68 °FFog.No wind83%29.95 "Hg1 mi
2:30 AM68 °FFog.No wind78%29.95 "Hg1 mi
2:00 AM68 °FFog.No wind78%29.95 "Hg1 mi
1:30 AM70 °FClear.No wind78%29.95 "Hg1 mi
1:00 AM70 °FClear.No wind78%29.95 "Hg1 mi
12:30 AM72 °FClear.No wind73%29.95 "Hg1 mi
12:00 AM72 °FClear.No wind73%29.98 "Hg1 mi
11:30 PM
Oct 20
72 °FClear.No wind73%29.98 "Hg1 mi
11:00 PM72 °FClear.No wind73%29.98 "Hg1 mi
10:30 PM73 °FClear.No wind74%29.98 "Hg1 mi
9:30 PM75 °FClear.No wind69%29.98 "Hg1 mi
9:00 PM77 °FHaze.5 mph54%29.98 "Hg1 mi
8:30 PM77 °FClear.5 mph54%29.98 "Hg1 mi
8:00 PM79 °FClear.5 mph51%29.95 "Hg1 mi
7:30 PM79 °FHaze.3 mph51%29.95 "Hg1 mi
7:00 PM81 °FHaze.3 mph45%29.95 "Hg1 mi
6:30 PM82 °FHaze.6 mph42%29.92 "Hg1 mi
6:00 PM84 °FHaze.6 mph37%29.92 "Hg1 mi
5:30 PM86 °FHaze.7 mph33%29.92 "Hg1 mi
5:00 PM86 °FHaze.9 mph31%29.89 "Hg2 mi
3:00 PM90 °FHaze.10 mph27%29.92 "Hg1 mi
2:30 PM90 °FHaze.10 mph29%29.92 "Hg1 mi
2:00 PM90 °FHaze.8 mph29%29.92 "Hg2 mi
1:30 PM90 °FHaze.8 mph29%29.92 "Hg2 mi
1:00 PM88 °FHaze.7 mph33%29.95 "Hg2 mi
12:00 PM86 °FHaze.6 mph33%29.98 "Hg1 mi
11:30 AM84 °FHaze.7 mph35%30.01 "Hg1 mi
11:00 AM82 °FHaze.6 mph37%30.01 "Hg1 mi
10:30 AM81 °FClear.5 mph42%30.01 "Hg1 mi
8:30 AM68 °FClear.No wind60%29.98 "Hg1 mi
8:00 AM66 °FFog.No wind68%29.98 "Hg1 mi
Weather by CustomWeather, © 2014

See weather overviewHow to use our weather pages